Starlink 30570

operational
NORAD ID: 58095 Int'l Des: 2023-160 Owner: SPXS Country: US Constellation: starlink
LEOCIRCULAR

Über Starlink 30570

Beschreibung wird geladen...

Live-Position

3D-Globus wird geladen...

Nächste Überflüge

Höhenverlauf

Altitude vs Time

uPlot chart will show altitude changes over time

Zweizeiliger Elementsatz

1 58095U 23160W 25352.86100504 .00000368 00000-0 42307-4 0 9997
2 58095 43.0026 159.0713 0001422 264.4146 95.6534 15.02534994120766
Epoch: 18. Dez. 2025 • Age: 7 hours

Aktueller Status

Höhe 561.2 km
Geschwindigkeit 7.59 km/s
Subsatellitenpunkt 34.11°N, 66.49°E
Startdatum 18. Okt. 2023
Alter 2.1 years
Typ internet

Technische Details

Klassifizierung Payload
Masse 730.00 kg
Trockenmasse 700.00 kg
Gesamtmasse 730.00 kg
Länge 0.30 m
Durchmesser 4.10 m
Spannweite 29.00 m
Form Box + pan
Hersteller SPXS
Bus-Typ Starlink V2M
Phasenstatus In Orbit
Besitzer/Staat SPXS/US

Große Konstellationen

Loading constellations...